Regional Weather Roundup
Issued by NWS Bismarck, ND

Home | Current Version | Previous Version | Text Only | Print | Product List | Glossary On
Versions: 1 2 3 4 5 6 7 8 9 10 11 12 13 14 15 16 17 18 19 20 21 22 23 24 25 26 27 28 29 30 31 32 33 34 35 36 37 38 39 40 41 42 43 44 45 46 47 48 49 50
000
ASUS43 KBIS 241210
RWRBIS

NWR BROADCAST TEXT
NATIONAL WEATHER SERVICE BISMARCK ND
700 AM CDT FRI MAR 24 2017

NOTE: "FAIR" INDICATES FEW OR NO CLOUDS BELOW 12,000 FEET WITH NO
SIGNIFICANT WEATHER AND/OR OBSTRUCTIONS TO VISIBILITY.


CITY           SKY/WX    TMP DP  RH WIND       PRES   REMARKS
WILLISTON      FAIR      24  22  91 CALM      30.08R
MINOT          FAIR      26  23  88 NW6       30.10R WCI  19
MINOT AFB      FAIR      25  23  92 N6        30.10R WCI  18
BISMARCK       FAIR      28  26  92 CALM      30.08R
DICKINSON      FAIR      27  26  96 N3        30.03R
GARRISON         N/A     26  23  88 N10       30.07R WCI  16
HETTINGER ARPT FAIR      29  28  96 NW5       30.04R
JAMESTOWN      FAIR      30  28  92 NW9       30.05R
HAZEN          FAIR      19  19 100 CALM      30.10R
MANDAN         FAIR      27  27 100 N7        30.06R WCI  19
RUGBY            N/A     23  23 100 NE9       30.11R WCI  13
STANLEY        FAIR      27  27 100 CALM      30.10R
TIOGA          FAIR      25  25 100 E5        30.09R WCI  19
WATFORD CITY   FAIR      28  28 100 CALM      30.07R
$$

CITY           SKY/WX    TMP DP  RH WIND       PRES   REMARKS
GRAND FORKS    FAIR      30  27  88 N10       30.06R
GRAND FORKS AF FAIR      28  25  86 N13       30.07R WCI  18
DEVILS LAKE    FAIR      25  23  92 N9        30.10R WCI  15
FARGO          CLOUDY    35  33  92 N12       30.02R FOG
GRAFTON        FAIR      28  27  93 N13G18    30.10R WCI  18
GWINNER        CLOUDY    34  34 100 MISG      30.03R FOG
LANGDON        FAIR      23  23 100 N12       30.09R WCI  12
ROLLA          FAIR      23  23 100 N10       30.11R WCI  12
$$

CITY           SKY/WX    TMP DP  RH WIND       PRES   REMARKS
ABERDEEN       CLOUDY    35  31  85 N14       30.02R
MOBRIDGE       FAIR      36  31  82 NE9       30.00R
BUFFALO          N/A     37  33  85 NW8       29.97R
RAPID CITY     CLOUDY    42  38  85 NW6       30.04R
GLASGOW        FAIR      28  25  88 E10       30.04R WCI  19
SIDNEY         FAIR      28  27  96 N6        30.07R
WOLF POINT     FAIR      30  27  88 E5        30.06R FOG
GLENDIVE       FAIR      30  27  88 N3        30.06R
MILES CITY     FAIR      33  30  88 SE6       30.06R
BAKER          FAIR      32  29  88 CALM      30.06R
$$

CITY           SKY/WX    TMP DP  RH WIND       PRES   REMARKS
BILLINGS       FAIR      36  31  82 SW13      30.06R
GREAT FALLS    FAIR      29  19  66 S9        29.99F
REGINA         CLEAR     23  21  93 SE7       30.11R WCI  15
ESTEVAN        PTCLDY    25  23  93 E8        30.11R WCI  16
$$





USA.gov is the U.S. government's official web portal to all federal, state and local government web resources and services.